User: anonymous   Login
Location: Unspecified
(0.0000°N, 0.0000°E)
Time: 02:58:37
(UTC+00:00)
Language:

NOSS 2-3 (D) - Orbit

View from above orbital plane
View from above orbital plane
View from above satellite
View from above satellite

Ground track
Ground track

The orbit data is extracted from the following two-line orbital elements,

1 23862U 96029D   17227.88501658 0.00000000  00000-0  00000-0 0    00
2 23862  63.3774 260.7898 0610000  13.7355 346.2645 13.40817319    01
Epoch (UTC): 15 August 2017 21:14:25
Eccentricity: 0.0610000
inclination: 63.3774°
perigee height: 649 km
apogee height: 1563 km
right ascension of ascending node: 260.7898°
argument of perigee: 13.7355°
revolutions per day: 13.40817319
mean anomaly at epoch: 346.2645°
orbit number at epoch: 0

The dashed part of the orbit path shows where the satellite is in the earth's shadow,  

DLR